Altus AFB, OK

8:24 PM CDT on July 26, 2017 (GMT -0500)
Altus Air Force Base

Weather History for KLTS - January, 2012

Change the Weather History Date:

Friday, January 20, 2012

  Actual Average Record
Temperature  
Mean Temperature 44 °F -  
Max Temperature 62 °F 50 °F 80 °F (1999)
Min Temperature 27 °F 27 °F 14 °F (2008)
Degree Days  
Heating Degree Days 20    
Moisture  
Dew Point 27 °F    
Average Humidity 61    
Maximum Humidity 84    
Minimum Humidity 37    
Precipitation  
Precipitation 0.00 in - - ()
Sea Level Pressure  
Sea Level Pressure 29.81 in    
Wind  
Wind Speed 7 mph (North)    
Max Wind Speed 24 mph    
Max Gust Speed 29 mph    
Visibility 10 miles    
Events      
Averages and records for this station are not official NWS values.
T = Trace of Precipitation, MM = Missing Value Source: NWS Daily Summary

Daily Weather History Graph

Daily Weather History Graph

Search for Another Location

Airport or City:

Trip Planner

Search our weather history database for the weather conditions in past years. The results will help you decide how hot, cold, wet, or windy it might be!

Date:

Astronomy

Jan. 20, 2012 Rise Set
Actual Time 7:42 AM CST 5:53 PM CST
Civil Twilight 7:15 AM CST 6:21 PM CST
Nautical Twilight 6:44 AM CST 6:51 PM CST
Astronomical Twilight 6:14 AM CST 7:22 PM CST
Moon 5:18 AM CST (1/20) 3:30 PM CST (1/20)
Length of Visible Light 11h 05m
Length of Day
10h 11m
Waning Crescent, 8% of the Moon is Illuminated
Jan 20
Waning Crescent
Jan 23
New
Jan 30
First Quarter
Feb 7
Full
Feb 14
Last Quarter

Hourly Weather History & Observations

Time (CST) Temp. Windchill Dew Point Humidity Pressure Visibility Wind Dir Wind Speed Gust Speed Precip Events Conditions
12:55 AM 32.0 °F 26.4 °F 24.6 °F 74% 29.83 in 10.0 mi ENE 5.8 mph - N/A   Clear
1:55 AM 29.8 °F 26.3 °F 23.7 °F 78% 29.81 in 10.0 mi North 3.5 mph - N/A   Clear
2:55 AM 31.5 °F 26.8 °F 24.4 °F 75% 29.78 in 10.0 mi West 4.6 mph - N/A   Clear
3:55 AM 30.7 °F 24.9 °F 24.1 °F 76% 29.75 in 10.0 mi WNW 5.8 mph - N/A   Clear
4:55 AM 28.4 °F 22.2 °F 24.1 °F 84% 29.73 in 10.0 mi NW 5.8 mph - N/A   Clear
5:55 AM 28.0 °F 20.0 °F 23.2 °F 82% 29.73 in 10.0 mi NW 8.1 mph - N/A   Clear
6:55 AM 28.2 °F 22.0 °F 23.2 °F 81% 29.72 in 10.0 mi NW 5.8 mph - N/A   Clear
7:55 AM 27.5 °F 23.6 °F 22.5 °F 81% 29.72 in 10.0 mi NNW 3.5 mph - N/A   Clear
8:55 AM 30.4 °F - 25.7 °F 83% 29.74 in 10.0 mi Calm Calm - N/A   Clear
9:55 AM 37.9 °F - 28.9 °F 70% 29.74 in 10.0 mi Calm Calm - N/A   Clear
10:55 AM 43.2 °F - 29.8 °F 59% 29.74 in 10.0 mi Calm Calm - N/A   Clear
11:55 AM 51.8 °F - 32.0 °F 47% 29.83 in 10.0 mi North 3.5 mph - N/A   Clear
12:55 PM 53.2 °F - 33.8 °F 48% 29.71 in 10.0 mi Variable 3.5 mph - N/A   Clear
1:55 PM 60.1 °F - 35.6 °F 40% 29.69 in 10.0 mi NNW 8.1 mph - N/A   Clear
2:55 PM 62.1 °F - 35.1 °F 37% 29.70 in 10.0 mi North 12.7 mph - N/A   Clear
3:55 PM 61.2 °F - 34.9 °F 37% 29.75 in 10.0 mi NNE 15.0 mph - N/A   Clear
4:55 PM 56.8 °F - 32.2 °F 39% 29.80 in 10.0 mi NNE 15.0 mph - N/A   Clear
5:55 PM 49.3 °F - 30.0 °F 48% 29.83 in 10.0 mi NE 13.8 mph - N/A   Clear
6:55 PM 46.6 °F - 29.1 °F 51% 29.87 in 10.0 mi NNE 12.7 mph - N/A   Clear
7:55 PM 44.4 °F 36.9 °F 27.1 °F 51% 29.93 in 10.0 mi NNE 17.3 mph - N/A   Clear
8:55 PM 41.0 °F 30.9 °F 24.1 °F 51% 29.97 in 10.0 mi NNE 24.2 mph - N/A   Clear
9:55 PM 37.6 °F 26.6 °F 21.2 °F 52% 30.02 in 10.0 mi North 23.0 mph 28.8 mph N/A   Clear
10:55 PM 35.4 °F 25.6 °F 19.6 °F 53% 30.05 in 10.0 mi North 16.1 mph 24.2 mph N/A   Clear
11:55 PM 34.0 °F 23.8 °F 19.2 °F 55% 30.07 in 10.0 mi NNE 16.1 mph 27.6 mph N/A   Clear